Regional Weather Roundup
Issued by NWS

Home | Current Version | Previous Version | Text Only | Print | Product List | Glossary On
Versions: 1 2 3 4 5 6 7 8 9 10 11 12 13 14 15 16 17 18 19 20 21 22 23 24 25 26 27 28 29 30 31 32 33 34 35 36 37 38 39 40 41 42 43 44 45 46 47 48 49 50
000
ASUS43 KOAX 180410
RWRNE

WEATHER ROUNDUP FOR NEBRASKA
NATIONAL WEATHER SERVICE OMAHA NE
1000 PM CST WED JAN 17 2018

NOTES: SATELLITE DATA IS BEING USED TO AUGMENT CLOUD COVER ABOVE
       12000 FEET.
       "FAIR" INDICATES FEW OR NO CLOUDS BELOW 12,000 FEET WITH NO
       SIGNIFICANT WEATHER AND/OR OBSTRUCTIONS TO VISIBILITY.


NEZ001>004-019>022-054>056-180500-
NEBRASKA PANHANDLE

CITY           SKY/WX    TMP DP  RH WIND       PRES   REMARKS
SCOTTSBLUFF    CLEAR     21  15  78 E3        30.18F
ALLIANCE       CLEAR     13  11  92 SE5       30.16F WCI   5
CHADRON        CLEAR     24  21  88 W9        30.13F WCI  14
GORDON         FAIR      29  20  70 SW9       30.14S WCI  20
KIMBALL        CLEAR     23  19  85 W7        30.20F WCI  14
SIDNEY         CLEAR     18  14  84 W8        30.21F WCI   8
$$

NEZ057>060-069>072-079>082-180500-
SOUTHWEST NEBRASKA

CITY           SKY/WX    TMP DP  RH WIND       PRES   REMARKS
NORTH PLATTE   CLEAR     18  13  80 CALM      30.21F
IMPERIAL       CLEAR     24  18  77 W8        30.23F WCI  15
LEXINGTON      CLEAR     26  17  67 SW7       30.24S WCI  18
MCCOOK         CLEAR     23  16  74 W8        30.23F WCI  14
OGALLALA       CLEAR     24  19  82 CALM      30.22F
$$

NEZ005>010-023>029-035>040-094-180500-
NORTH CENTRAL NEBRASKA

CITY           SKY/WX    TMP DP  RH WIND       PRES   REMARKS
VALENTINE      CLEAR     25  21  85 SW9       30.15F WCI  15
AINSWORTH      CLEAR     25  22  89 SW8       30.16F WCI  16
BROKEN BOW     CLEAR     24  15  68 SW3       30.21F
O`NEILL        CLEAR     21  18  86 SW6       30.17F WCI  14
ORD            CLEAR     25  17  72 SW9       30.20F WCI  15
THEDFORD       CLEAR     26  20  80 NW8       30.20S WCI  17
$$

NEZ041-046>049-061>064-073>077-083>087-180500-
SOUTH CENTRAL NEBRASKA

CITY           SKY/WX    TMP DP  RH WIND       PRES   REMARKS
GRAND ISLAND   CLOUDY    25  15  66 SW13      30.25F WCI  14
AURORA         CLOUDY    22  13  69 SW12      30.26F WCI  10
HASTINGS       CLOUDY    23  12  62 S9        30.26F WCI  13
HEBRON         CLOUDY    23  13  66 SW10      30.31F WCI  12
HOLDREGE       CLOUDY    23  15  72 SW6       30.24F WCI  16
KEARNEY        CLOUDY    24  14  65 SW10      30.25F WCI  14
YORK           CLOUDY    18  14  86 SW10      30.27F WCI   6
$$

NEZ011>018-030>034-042>045-180500-
NORTHEAST NEBRASKA

CITY           SKY/WX    TMP DP  RH WIND       PRES   REMARKS
NORFOLK        CLOUDY    24  15  68 SW18      30.18F WCI  10
ALBION         CLOUDY    24  16  72 CALM      30.21F
BLAIR          CLOUDY    22  14  71 S16       30.27F WCI   8
COLUMBUS       CLOUDY    24  15  68 SW10      30.25F WCI  14
FREMONT        CLOUDY    22  14  72 S8        30.28F WCI  12
TEKAMAH        CLOUDY    18  11  74 S12       30.27F WCI   5
WAYNE          CLOUDY    25  16  68 W7        30.21R WCI  17
$$

NEZ050>053-065>068-078-088>093-180500-
SOUTHEAST NEBRASKA

CITY           SKY/WX    TMP DP  RH WIND       PRES   REMARKS
LINCOLN        CLOUDY    21  12  68 SW8       30.32F WCI  11
OMAHA EPPLEY   CLOUDY    19  11  70 S9        30.31F WCI   8
BEATRICE       CLOUDY    20  13  73 S10       30.33F WCI   9
FALLS CITY     CLOUDY    20  12  71 S9        30.38F WCI   9
NEBRASKA CITY  CLOUDY    19  13  76 SW14      30.32F WCI   6
PLATTSMOUTH    CLOUDY    21  13  72 S15       30.31F WCI   7
$$

NEZ044-045-051>053-067-180500-
OMAHA AREA

CITY           SKY/WX    TMP DP  RH WIND       PRES   REMARKS
OMAHA EPPLEY   CLOUDY    19  11  70 S9        30.31F WCI   8
BLAIR          CLOUDY    22  14  71 S16       30.27F WCI   8
FREMONT        CLOUDY    22  14  72 S8        30.28F WCI  12
MILLARD        CLOUDY    22  13  69 SE3       30.31F
OFFUTT AFB     CLOUDY    18  10  70 S6        30.31F WCI  10
PLATTSMOUTH    CLOUDY    21  13  72 S15       30.31F WCI   7
WAHOO          FAIR      22  13  69 SW7       30.29F WCI  13
$$




USA.gov is the U.S. government's official web portal to all federal, state and local government web resources and services.